Powrót do katalogu

STARLINK-34054

AktywnyŁącznośćVLEO
NORAD 64141·PAYLOAD·🇺🇸 United States

Wystrzelony May 24, 2025 z Cape Canaveral Space Force Station

Loading…

Następne Przeloty (najbliższe 24 godziny)

TLE

ŚwieżeSource: CelesTrak SupGP

Epoka: Sep 14, 2026, 20:43 UTC

1 64141C 25111U   26257.86368056 -.00079899  00000+0 -28948-2 0  2573
2 64141  43.0024  89.4428 0001150 265.5027 177.0345 15.27608827    14

Śledź STARLINK-34054 w czasie rzeczywistym z AllMySat

Download on the App Store